YV5KXE-4 Weather Reports


time (UTC)temp
C
wind
direction
speed
KPH
gust
KPH
rain 1hr
cm
rain 24hr
cm
rain mn
cm
humidity
%
barometer
mb
20260507070504 21 42 1.6 4.8 0.00 0.00 0.00 81 1015.6
20260507070010 21 42 1.6 4.8 0.00 0.00 0.00 81 1015.6
20260507065504 21 42 0.0 4.8 0.00 0.00 0.00 82 1015.5
20260507065004 21 49 0.0 0.0 0.00 0.00 0.00 83 1015.6
20260507064504 21 49 1.6 4.8 0.00 0.00 0.00 83 1015.7
20260507064004 21 49 0.0 0.0 0.00 0.00 0.00 83 1015.8
20260507063504 21 49 0.0 4.8 0.00 0.00 0.00 83 1015.9
20260507063006 21 50 0.0 4.8 0.00 0.00 0.00 84 1016.0
20260507062503 21 49 0.0 4.8 0.00 0.00 0.00 84 1016.0
20260507062003 21 49 0.0 4.8 0.00 0.00 0.00 85 1016.1
20260507061503 21 50 3.2 9.7 0.00 0.00 0.00 84 1016.2
20260507061003 21 124 3.2 12.9 0.00 0.00 0.00 85 1016.2
20260507060504 21 92 3.2 12.9 0.00 0.00 0.00 84 1016.2
20260507060006 21 76 4.8 8.0 0.00 0.00 0.00 84 1016.2
20260507055503 21 125 3.2 8.0 0.00 0.00 0.00 85 1016.2
20260507055004 21 76 3.2 14.5 0.00 0.00 0.00 85 1016.2
20260507054504 21 82 8.0 16.1 0.00 0.00 0.00 84 1016.4
20260507054003 21 46 1.6 4.8 0.00 0.00 0.00 84 1016.5
20260507053504 21 108 4.8 14.5 0.00 0.00 0.00 85 1016.6
20260507053006 22 99 6.4 16.1 0.00 0.00 0.00 85 1016.6
20260507052504 22 134 8.0 12.9 0.00 0.00 0.00 86 1016.5
20260507052004 22 70 4.8 8.0 0.00 0.00 0.00 86 1016.5
20260507051503 22 96 4.8 12.9 0.00 0.00 0.00 86 1016.6
20260507051003 22 133 4.8 9.7 0.00 0.00 0.00 86 1016.6
20260507050503 22 124 1.6 12.9 0.00 0.00 0.00 86 1016.7
20260507050006 22 142 6.4 12.9 0.00 0.00 0.00 86 1016.8
20260507045504 22 148 1.6 12.9 0.00 0.00 0.00 86 1016.9
20260507045003 22 105 3.2 12.9 0.00 0.00 0.00 86 1016.9
20260507044503 22 132 4.8 12.9 0.00 0.00 0.00 86 1017.0
20260507044004 22 125 4.8 9.7 0.00 0.00 0.00 86 1017.0
20260507043503 22 117 4.8 11.3 0.00 0.00 0.00 86 1017.1
20260507043006 22 89 3.2 8.0 0.00 0.00 0.00 86 1017.2
20260507042504 22 161 3.2 9.7 0.00 0.00 0.00 86 1017.2
20260507042003 22 106 1.6 4.8 0.00 0.00 0.00 87 1017.2
20260507041504 22 106 8.0 14.5 0.00 0.00 0.00 87 1017.1
20260507041004 22 144 4.8 14.5 0.00 0.00 0.00 87 1017.1
20260507040504 22 123 8.0 20.9 0.00 0.00 0.00 87 1017.2
20260507040006 22 139 4.8 16.1 0.00 0.00 0.00 87 1017.2
20260507035503 22 145 6.4 19.3 0.00 0.00 0.00 87 1017.3
20260507035004 22 152 9.7 16.1 0.00 0.00 0.00 87 1017.2
20260507034503 22 129 8.0 16.1 0.00 0.00 0.00 88 1017.3
20260507034003 22 147 8.0 16.1 0.00 0.00 0.00 88 1017.3
20260507033503 22 132 4.8 16.1 0.00 0.00 0.00 89 1017.3
20260507033006 22 91 6.4 12.9 0.00 0.00 0.00 89 1017.3
20260507032504 22 135 8.0 19.3 0.00 0.00 0.00 89 1017.3
20260507032004 22 119 6.4 16.1 0.00 0.00 0.00 89 1017.3
20260507031504 22 120 3.2 11.3 0.00 0.00 0.00 89 1017.3
20260507031003 22 105 4.8 12.9 0.00 0.00 0.00 89 1017.3
20260507030504 22 123 4.8 14.5 0.00 0.00 0.00 89 1017.3
20260507030006 22 91 3.2 14.5 0.00 0.00 0.00 88 1017.3
20260507025503 22 144 4.8 9.7 0.00 0.00 0.00 88 1017.3
20260507025003 22 95 3.2 9.7 0.00 0.00 0.00 88 1017.3
20260507024504 22 142 4.8 16.1 0.00 0.00 0.00 88 1017.3
20260507024004 22 131 3.2 12.9 0.00 0.00 0.00 88 1017.3
20260507023504 22 137 0.0 12.9 0.00 0.00 0.00 88 1017.2
20260507023006 22 130 4.8 16.1 0.00 0.00 0.00 88 1017.2
20260507022504 22 93 3.2 19.3 0.00 0.00 0.00 87 1017.1
20260507022004 22 153 8.0 14.5 0.00 0.00 0.00 87 1017.0
20260507021504 22 138 6.4 16.1 0.00 0.00 0.00 87 1017.1
20260507021004 22 128 6.4 16.1 0.00 0.00 0.00 87 1017.1
20260507020503 22 137 3.2 19.3 0.00 0.00 0.00 87 1017.0
20260507020006 22 117 4.8 19.3 0.00 0.00 0.00 86 1017.0
20260507015503 23 134 4.8 16.1 0.00 0.00 0.00 86 1016.8
20260507015004 23 118 8.0 22.5 0.00 0.00 0.00 85 1016.8
20260507014503 23 120 8.0 19.3 0.00 0.00 0.00 85 1016.8
20260507014004 23 147 8.0 16.1 0.00 0.00 0.00 85 1016.7
20260507013504 23 160 4.8 12.9 0.00 0.00 0.00 85 1016.6
20260507013006 23 144 9.7 19.3 0.00 0.00 0.00 84 1016.6
20260507012504 23 146 4.8 16.1 0.00 0.00 0.00 84 1016.5
20260507012004 23 150 4.8 19.3 0.00 0.00 0.00 83 1016.5
20260507011503 23 136 9.7 16.1 0.00 0.00 0.00 83 1016.5
20260507011004 23 149 4.8 11.3 0.00 0.00 0.00 82 1016.4
20260507010504 23 110 1.6 11.3 0.00 0.00 0.00 82 1016.3
20260507010006 23 110 6.4 14.5 0.00 0.00 0.00 82 1016.2
20260507005504 23 148 8.0 19.3 0.00 0.00 0.00 81 1016.2
20260507005003 24 136 6.4 14.5 0.00 0.00 0.00 80 1016.0
20260507004504 24 141 4.8 12.9 0.00 0.00 0.00 79 1016.0
20260507004004 24 130 4.8 16.1 0.00 0.00 0.00 78 1015.9
20260507003504 24 160 3.2 9.7 0.00 0.00 0.00 78 1015.9
20260507003006 24 151 4.8 19.3 0.00 0.00 0.00 78 1015.8
20260507002504 24 128 4.8 14.5 0.00 0.00 0.00 77 1015.9
20260507002003 24 106 6.4 12.9 0.00 0.00 0.00 76 1015.8
20260507001503 24 137 9.7 19.3 0.00 0.00 0.00 76 1015.7
20260507001004 24 148 6.4 12.9 0.00 0.00 0.00 75 1015.5
20260507000504 25 146 8.0 16.1 0.00 0.00 0.00 75 1015.5
20260507000006 25 156 8.0 16.1 0.00 0.00 0.00 75 1015.4
20260506235504 25 166 8.0 11.3 0.00 0.00 0.00 74 1015.4
20260506235004 25 113 9.7 19.3 0.00 0.00 0.00 73 1015.3
20260506234504 25 120 8.0 14.5 0.00 0.00 0.00 73 1015.2
20260506234004 25 170 3.2 19.3 0.00 0.00 0.00 73 1015.3
20260506233504 25 87 3.2 19.3 0.00 0.00 0.00 71 1015.2
20260506233006 26 91 8.0 20.9 0.00 0.00 0.00 68 1015.2
20260506232503 26 168 1.6 14.5 0.00 0.00 0.00 67 1015.0
20260506232004 26 125 6.4 12.9 0.00 0.00 0.00 65 1015.0
20260506231503 26 156 8.0 16.1 0.00 0.00 0.00 64 1014.8
20260506231004 26 137 4.8 12.9 0.00 0.00 0.00 62 1014.7
20260506230504 26 128 4.8 11.3 0.00 0.00 0.00 61 1014.7
20260506230006 26 136 8.0 16.1 0.00 0.00 0.00 59 1014.7
20260506225503 26 110 9.7 16.1 0.00 0.00 0.00 58 1014.5
20260506225003 26 105 3.2 11.3 0.00 0.00 0.00 58 1014.5
20260506224504 26 49 9.7 20.9 0.00 0.00 0.00 58 1014.4
20260506224004 27 64 8.0 19.3 0.00 0.00 0.00 57 1014.3
20260506223504 27 84 3.2 12.9 0.00 0.00 0.00 56 1014.3
20260506223006 27 154 6.4 16.1 0.00 0.00 0.00 56 1014.2
20260506222503 27 116 4.8 14.5 0.00 0.00 0.00 56 1014.1
20260506222004 27 55 4.8 12.9 0.00 0.00 0.00 56 1014.1
20260506221504 27 80 9.7 19.3 0.00 0.00 0.00 55 1014.1
20260506221003 27 93 4.8 12.9 0.00 0.00 0.00 55 1014.1
20260506220503 27 136 8.0 14.5 0.00 0.00 0.00 54 1014.0
20260506220005 27 144 8.0 19.3 0.00 0.00 0.00 54 1014.0
20260506215504 27 43 6.4 19.3 0.00 0.00 0.00 54 1014.0
20260506215004 27 113 4.8 16.1 0.00 0.00 0.00 53 1014.0
20260506214503 27 173 9.7 16.1 0.00 0.00 0.00 53 1014.0
20260506214003 27 154 8.0 14.5 0.00 0.00 0.00 53 1013.9
20260506213504 27 148 6.4 14.5 0.00 0.00 0.00 52 1013.7
20260506213006 28 186 3.2 16.1 0.00 0.00 0.00 51 1013.6
20260506212503 28 103 3.2 14.5 0.00 0.00 0.00 51 1013.7
20260506212003 28 166 4.8 12.9 0.00 0.00 0.00 50 1013.6
20260506211504 28 158 3.2 9.7 0.00 0.00 0.00 50 1013.5
20260506211004 28 47 3.2 14.5 0.00 0.00 0.00 50 1013.4
20260506210504 28 125 11.3 24.1 0.00 0.00 0.00 49 1013.4
20260506210006 28 130 8.0 20.9 0.00 0.00 0.00 48 1013.3
20260506205504 28 140 4.8 12.9 0.00 0.00 0.00 47 1013.2
20260506205003 28 131 3.2 12.9 0.00 0.00 0.00 47 1013.2
20260506204504 28 129 4.8 19.3 0.00 0.00 0.00 47 1013.1
20260506204004 28 111 8.0 19.3 0.00 0.00 0.00 48 1013.2
20260506203503 28 110 8.0 19.3 0.00 0.00 0.00 48 1013.2
20260506203006 28 150 9.7 20.9 0.00 0.00 0.00 48 1013.3
20260506202504 28 135 9.7 20.9 0.00 0.00 0.00 48 1013.3
20260506202004 28 140 4.8 20.9 0.00 0.00 0.00 47 1013.3
20260506201504 28 136 8.0 20.9 0.00 0.00 0.00 47 1013.4
20260506201004 28 150 6.4 14.5 0.00 0.00 0.00 46 1013.4
20260506200504 28 113 4.8 12.9 0.00 0.00 0.00 46 1013.4
20260506200006 28 164 11.3 19.3 0.00 0.00 0.00 47 1013.5
20260506195504 28 174 6.4 22.5 0.00 0.00 0.00 46 1013.7
20260506195004 28 145 8.0 22.5 0.00 0.00 0.00 47 1013.8
20260506194504 28 147 3.2 14.5 0.00 0.00 0.00 47 1013.7
20260506194003 28 134 9.7 20.9 0.00 0.00 0.00 48 1013.8
20260506193504 28 163 6.4 16.1 0.00 0.00 0.00 48 1013.8
20260506193006 28 127 8.0 32.2 0.00 0.00 0.00 47 1013.8
20260506192504 28 89 9.7 19.3 0.00 0.00 0.00 46 1014.0
20260506192004 29 107 4.8 14.5 0.00 0.00 0.00 44 1014.0
20260506191504 29 158 8.0 14.5 0.00 0.00 0.00 43 1014.0
20260506191003 28 143 8.0 12.9 0.00 0.00 0.00 44 1014.0
20260506190503 28 120 6.4 12.9 0.00 0.00 0.00 46 1014.1
20260506190006 28 91 9.7 22.5 0.00 0.00 0.00 47 1014.3
20260506185504 28 114 11.3 22.5 0.00 0.00 0.00 46 1014.5
20260506185004 28 128 9.7 24.1 0.00 0.00 0.00 46 1014.5
20260506184504 28 99 8.0 12.9 0.00 0.00 0.00 46 1014.5
20260506184003 27 110 1.6 12.9 0.00 0.00 0.00 48 1014.6
20260506183504 28 104 9.7 24.1 0.00 0.00 0.00 46 1014.7
20260506183006 28 79 8.0 24.1 0.00 0.00 0.00 46 1014.7
20260506182504 28 118 9.7 20.9 0.00 0.00 0.00 45 1014.8
20260506182003 28 145 9.7 19.3 0.00 0.00 0.00 44 1014.8
20260506181504 28 176 9.7 20.9 0.00 0.00 0.00 44 1014.9
20260506181003 28 172 8.0 25.7 0.00 0.00 0.00 42 1015.1
20260506180503 28 123 11.3 22.5 0.00 0.00 0.00 44 1015.2
20260506180007 28 74 4.8 16.1 0.00 0.00 0.00 45 1015.2
20260506175503 28 82 8.0 19.3 0.00 0.00 0.00 45 1015.5
20260506175004 28 168 8.0 19.3 0.00 0.00 0.00 44 1015.7
20260506174504 27 103 11.3 24.1 0.00 0.00 0.00 46 1015.7
20260506174004 28 84 14.5 24.1 0.00 0.00 0.00 46 1015.8
20260506173503 28 89 12.9 27.4 0.00 0.00 0.00 45 1015.8
20260506173006 28 156 4.8 19.3 0.00 0.00 0.00 45 1015.8
20260506172504 28 134 11.3 20.9 0.00 0.00 0.00 45 1015.9
20260506172004 28 156 8.0 20.9 0.00 0.00 0.00 45 1016.0
20260506171503 28 79 8.0 19.3 0.00 0.00 0.00 44 1016.0
20260506171004 28 136 8.0 29.0 0.00 0.00 0.00 45 1016.1
20260506170504 27 128 19.3 32.2 0.00 0.00 0.00 46 1016.2
20260506170006 27 133 9.7 19.3 0.00 0.00 0.00 47 1016.4
20260506165504 27 161 12.9 20.9 0.00 0.00 0.00 47 1016.4
20260506165003 27 166 11.3 20.9 0.00 0.00 0.00 46 1016.4
20260506164504 28 140 8.0 22.5 0.00 0.00 0.00 47 1016.6
20260506164004 27 98 3.2 14.5 0.00 0.00 0.00 50 1016.7
20260506163504 27 105 9.7 20.9 0.00 0.00 0.00 52 1016.8
20260506163006 27 71 9.7 22.5 0.00 0.00 0.00 51 1017.0
20260506162504 27 103 11.3 20.9 0.00 0.00 0.00 52 1017.0
20260506162004 27 107 14.5 27.4 0.00 0.00 0.00 52 1017.3
20260506161503 27 112 19.3 29.0 0.00 0.00 0.00 52 1017.3
20260506161004 27 99 4.8 14.5 0.00 0.00 0.00 53 1017.3
20260506160504 26 149 11.3 20.9 0.00 0.00 0.00 52 1017.4
20260506160006 26 125 11.3 19.3 0.00 0.00 0.00 52 1017.4
20260506155504 26 145 8.0 19.3 0.00 0.00 0.00 52 1017.4
20260506155004 26 183 6.4 19.3 0.00 0.00 0.00 53 1017.5
20260506154503 26 152 14.5 32.2 0.00 0.00 0.00 54 1017.6
20260506154003 26 177 9.7 16.1 0.00 0.00 0.00 52 1017.5
20260506153503 26 168 9.7 14.5 0.00 0.00 0.00 51 1017.7
20260506153006 26 120 11.3 19.3 0.00 0.00 0.00 52 1017.7
20260506152504 26 138 8.0 27.4 0.00 0.00 0.00 51 1017.9
20260506152004 26 129 11.3 25.7 0.00 0.00 0.00 51 1018.0
20260506151503 26 92 11.3 24.1 0.00 0.00 0.00 51 1018.0
20260506151004 26 126 9.7 20.9 0.00 0.00 0.00 53 1018.0
20260506150503 26 111 8.0 19.3 0.00 0.00 0.00 54 1018.0
20260506150006 26 139 4.8 20.9 0.00 0.00 0.00 55 1018.0
20260506145503 26 161 8.0 19.3 0.00 0.00 0.00 55 1018.0
20260506145004 26 120 4.8 12.9 0.00 0.00 0.00 58 1018.1
20260506144504 25 141 9.7 19.3 0.00 0.00 0.00 58 1018.1
20260506144004 25 118 8.0 22.5 0.00 0.00 0.00 60 1018.1
20260506143504 25 158 11.3 22.5 0.00 0.00 0.00 60 1018.1
20260506143006 25 153 8.0 16.1 0.00 0.00 0.00 63 1018.1
20260506142503 25 92 4.8 12.9 0.00 0.00 0.00 64 1018.3
20260506142004 25 163 6.4 14.5 0.00 0.00 0.00 66 1018.3
20260506141503 24 148 9.7 22.5 0.00 0.00 0.00 66 1018.3
20260506141003 24 136 9.7 19.3 0.00 0.00 0.00 67 1018.4
20260506140504 24 153 4.8 20.9 0.00 0.00 0.00 68 1018.4
20260506140006 24 153 8.0 20.9 0.00 0.00 0.00 70 1018.4
20260506135503 24 146 11.3 24.1 0.00 0.00 0.00 69 1018.4
20260506135003 24 102 9.7 22.5 0.00 0.00 0.00 70 1018.4
20260506134504 24 148 11.3 19.3 0.00 0.00 0.00 69 1018.4
20260506134004 24 140 9.7 24.1 0.00 0.00 0.00 70 1018.4
20260506133503 23 143 9.7 16.1 0.00 0.00 0.00 72 1018.2
20260506133006 23 134 9.7 22.5 0.00 0.00 0.00 73 1018.2
20260506132503 23 155 8.0 12.9 0.00 0.00 0.00 72 1018.2
20260506132003 23 129 4.8 14.5 0.00 0.00 0.00 74 1018.2
20260506131504 23 142 8.0 19.3 0.00 0.00 0.00 74 1018.3
20260506131004 23 102 8.0 16.1 0.00 0.00 0.00 74 1018.3
20260506130503 23 91 4.8 12.9 0.00 0.00 0.00 74 1018.3
20260506130006 23 95 11.3 22.5 0.00 0.00 0.00 75 1018.2
20260506125503 23 84 6.4 14.5 0.00 0.00 0.00 74 1018.1
20260506125004 23 60 4.8 12.9 0.00 0.00 0.00 74 1018.0
20260506124503 23 95 11.3 19.3 0.00 0.00 0.00 72 1018.0
20260506124004 23 18 3.2 19.3 0.00 0.00 0.00 73 1017.9
20260506123504 23 151 8.0 16.1 0.00 0.00 0.00 73 1017.8
20260506123006 23 117 3.2 14.5 0.00 0.00 0.00 73 1017.7
20260506122503 23 107 4.8 19.3 0.00 0.00 0.00 74 1017.7
20260506122003 22 218 4.8 12.9 0.00 0.00 0.00 75 1017.6
20260506121503 22 115 8.0 16.1 0.00 0.00 0.00 76 1017.6
20260506121004 22 116 6.4 14.5 0.00 0.00 0.00 76 1017.4
20260506120503 22 152 8.0 12.9 0.00 0.00 0.00 77 1017.4
20260506120006 22 145 3.2 16.1 0.00 0.00 0.00 77 1017.4
20260506115505 22 159 9.7 16.1 0.00 0.00 0.00 77 1017.3
20260506115004 22 118 3.2 11.3 0.00 0.00 0.00 78 1017.3
20260506114503 22 124 6.4 9.7 0.00 0.00 0.00 79 1017.3
20260506114004 21 142 8.0 16.1 0.00 0.00 0.00 80 1017.2
20260506113503 21 158 6.4 12.9 0.00 0.00 0.00 80 1017.1
20260506113006 21 142 4.8 11.3 0.00 0.00 0.00 81 1017.1
20260506112504 21 128 3.2 8.0 0.00 0.00 0.00 81 1017.2
20260506112004 21 8 1.6 4.8 0.00 0.00 0.00 82 1017.1
20260506111504 21 0 0.0 3.2 0.00 0.00 0.00 82 1017.0
20260506111004 21 0 0.0 1.6 0.00 0.00 0.00 81 1017.0
20260506110504 20 0 1.6 3.2 0.00 0.00 0.00 81 1016.9
20260506110006 20 0 0.0 3.2 0.00 0.00 0.00 82 1016.9
20260506105504 20 0 1.6 4.8 0.00 0.00 0.00 82 1016.8
20260506105004 20 0 0.0 0.0 0.00 0.00 0.00 82 1016.8
20260506104504 20 0 0.0 1.6 0.00 0.00 0.00 82 1016.8
20260506104004 20 0 0.0 0.0 0.00 0.00 0.00 82 1016.8
20260506103504 20 0 0.0 4.8 0.00 0.00 0.00 81 1016.8
20260506103006 20 0 1.6 4.8 0.00 0.00 0.00 81 1016.6
20260506102504 20 0 1.6 4.8 0.00 0.00 0.00 81 1016.6
20260506102004 20 0 3.2 4.8 0.00 0.00 0.00 81 1016.6
20260506101503 20 0 3.2 4.8 0.00 0.00 0.00 81 1016.5
20260506101004 20 0 0.0 0.0 0.00 0.00 0.00 80 1016.5
20260506100504 20 0 1.6 4.8 0.00 0.00 0.00 80 1016.6
20260506100005 20 0 1.6 3.2 0.00 0.00 0.00 81 1016.6
20260506095504 20 0 0.0 3.2 0.00 0.00 0.00 81 1016.5
20260506095003 20 0 0.0 0.0 0.00 0.00 0.00 81 1016.5
20260506094504 20 0 0.0 0.0 0.00 0.00 0.00 80 1016.5
20260506094004 20 0 0.0 3.2 0.00 0.00 0.00 80 1016.4
20260506093504 20 0 0.0 3.2 0.00 0.00 0.00 79 1016.3
20260506093006 20 0 1.6 4.8 0.00 0.00 0.00 79 1016.3
20260506092503 20 0 0.0 0.0 0.00 0.00 0.00 79 1016.3
20260506092004 20 0 0.0 4.8 0.00 0.00 0.00 78 1016.3
20260506091504 20 0 0.0 4.8 0.00 0.00 0.00 79 1016.3
20260506091004 20 0 0.0 4.8 0.00 0.00 0.00 79 1016.3
20260506090504 20 0 1.6 4.8 0.00 0.00 0.00 78 1016.3
20260506090005 20 359 1.6 4.8 0.00 0.00 0.00 79 1016.5
20260506085504 20 355 3.2 4.8 0.00 0.00 0.00 79 1016.4
20260506085004 20 19 0.0 0.0 0.00 0.00 0.00 79 1016.4
20260506084504 20 19 0.0 4.8 0.00 0.00 0.00 78 1016.3
20260506084004 20 19 1.6 3.2 0.00 0.00 0.00 78 1016.2
20260506083504 20 19 1.6 4.8 0.00 0.00 0.00 78 1016.2
20260506083006 20 19 1.6 8.0 0.00 0.00 0.00 78 1016.2
20260506082504 20 21 1.6 8.0 0.00 0.00 0.00 78 1016.1
20260506082004 20 353 4.8 8.0 0.00 0.00 0.00 79 1016.0
20260506081503 20 341 4.8 4.8 0.00 0.00 0.00 80 1016.0
20260506081003 20 338 4.8 4.8 0.00 0.00 0.00 79 1015.9
20260506080504 20 24 0.0 4.8 0.00 0.00 0.00 80 1015.9
20260506073504 20 24 1.6 4.8 0.00 0.00 0.00 79 1016.2
20260506073006 20 24 4.8 4.8 0.00 0.00 0.00 79 1016.1
20260506072503 20 24 0.0 3.2 0.00 0.00 0.00 80 1016.1
20260506072004 20 24 0.0 3.2 0.00 0.00 0.00 80 1016.2
20260506071504 20 24 3.2 4.8 0.00 0.00 0.00 79 1016.1
20260506071004 20 24 1.6 4.8 0.00 0.00 0.00 80 1016.1